When you browse on this site, cookies collect data to enhance your experience and personalize the content and advertising you see.
Visit our Privacy Policy to learn more. By continuing to use the site, you agree to this use of cookies and data.
  • In United Kingdom
  • List of Countries
  • For 7 days
  • Water Temperature
  • Satellite Maps
  • Weather Map
  • Weather Widgets
  • user-avatar
    Login

    Hourly Weather Kabwe

    Today, 22 March, Friday

    Time Temperature Precipitation Wind Pressure Humidity
    00:00 +20°C° 0 mm 0 mps 661 mmHg 72%
    01:00 +20°C° 0 mm 0 mps 660 mmHg 74%
    02:00 +19°C° 0 mm 0 mps 660 mmHg 75%
    03:00 +19°C° 0 mm 0 mps 660 mmHg 76%
    04:00 +21°C° 0 mm 1 mps 660 mmHg 78%
    05:00 +20°C° 0 mm 1 mps 660 mmHg 80%
    06:00 +21°C° 0 mm 1 mps 661 mmHg 79%
    07:00 +22°C° 0 mm 1 mps 661 mmHg 78%
    08:00 +24°C° 0 mm 2 mps 662 mmHg 76%
    09:00 +25°C° 0 mm 2 mps 662 mmHg 71%
    10:00 +27°C° 0 mm 2 mps 662 mmHg 66%
    11:00 +28°C° 0 mm 3 mps 663 mmHg 61%
    12:00 +29°C° 0 mm 3 mps 662 mmHg 57%
    13:00 +30°C° 0 mm 3 mps 662 mmHg 53%
    14:00 +30°C° 0 mm 2 mps 661 mmHg 49%
    15:00 +30°C° 0 mm 2 mps 661 mmHg 53%
    16:00 +30°C° 0 mm 2 mps 661 mmHg 58%
    17:00 +29°C° 0 mm 1 mps 661 mmHg 63%
    18:00 +27°C° 0 mm 1 mps 661 mmHg 66%
    19:00 +25°C° 0 mm 2 mps 661 mmHg 69%
    20:00 +23°C° 0 mm 2 mps 661 mmHg 73%
    21:00 +23°C° 0 mm 2 mps 661 mmHg 77%
    22:00 +21°C° 0 mm 2 mps 661 mmHg 80%
    23:00 +20°C° 0 mm 2 mps 662 mmHg 84%

    Tomorrow, 23 March, Saturday

    Time Temperature Precipitation Wind Pressure Humidity
    00:00 +20°C° 0 mm 2 mps 661 mmHg 87%
    01:00 +19°C° 0 mm 2 mps 661 mmHg 90%
    02:00 +19°C° 0 mm 2 mps 661 mmHg 92%
    03:00 +19°C° 0 mm 2 mps 661 mmHg 93%
    04:00 +18°C° 0 mm 2 mps 661 mmHg 94%
    05:00 +18°C° 0 mm 2 mps 661 mmHg 95%
    06:00 +19°C° 0 mm 3 mps 662 mmHg 91%
    07:00 +20°C° 0 mm 4 mps 662 mmHg 88%
    08:00 +21°C° 0 mm 4 mps 663 mmHg 85%
    09:00 +22°C° 0 mm 4 mps 663 mmHg 82%
    10:00 +22°C° 0 mm 4 mps 663 mmHg 79%
    11:00 +23°C° 0 mm 4 mps 663 mmHg 76%
    12:00 +25°C° 0 mm 4 mps 663 mmHg 71%
    13:00 +26°C° 0 mm 4 mps 663 mmHg 66%
    14:00 +28°C° 0 mm 4 mps 662 mmHg 61%
    15:00 +27°C° 0 mm 3 mps 662 mmHg 64%
    16:00 +27°C° 0 mm 3 mps 661 mmHg 67%
    17:00 +27°C° 0 mm 2 mps 661 mmHg 69%
    18:00 +25°C° 0 mm 2 mps 661 mmHg 74%
    19:00 +23°C° 0 mm 2 mps 661 mmHg 78%
    20:00 +20°C° 0 mm 2 mps 661 mmHg 83%
    21:00 +20°C° 0 mm 2 mps 661 mmHg 84%
    22:00 +19°C° 0 mm 2 mps 662 mmHg 86%
    23:00 +19°C° 0 mm 2 mps 662 mmHg 87%

    Day after tomorrow, 24 March, Sunday

    Time Temperature Precipitation Wind Pressure Humidity
    00:00 +19°C° 0 mm 2 mps 661 mmHg 89%
    01:00 +19°C° 0 mm 2 mps 661 mmHg 91%
    02:00 +18°C° 0 mm 2 mps 661 mmHg 93%
    03:00 +18°C° 0 mm 2 mps 661 mmHg 94%
    04:00 +18°C° 0 mm 2 mps 661 mmHg 95%
    05:00 +18°C° 0 mm 2 mps 661 mmHg 97%
    06:00 +19°C° 0 mm 3 mps 661 mmHg 93%
    07:00 +19°C° 0 mm 3 mps 662 mmHg 90%
    08:00 +20°C° 0 mm 4 mps 663 mmHg 87%
    09:00 +21°C° 0 mm 4 mps 663 mmHg 84%
    10:00 +21°C° 0 mm 4 mps 663 mmHg 81%
    11:00 +22°C° 0 mm 4 mps 663 mmHg 78%
    12:00 +24°C° 0 mm 3 mps 662 mmHg 74%
    13:00 +25°C° 0 mm 3 mps 662 mmHg 71%
    14:00 +26°C° 0 mm 3 mps 661 mmHg 67%
    15:00 +26°C° 0 mm 3 mps 661 mmHg 68%
    16:00 +26°C° 0 mm 2 mps 660 mmHg 69%
    17:00 +26°C° 0 mm 2 mps 660 mmHg 70%
    18:00 +24°C° 0 mm 2 mps 660 mmHg 75%
    19:00 +23°C° 0 mm 1 mps 660 mmHg 81%
    20:00 +21°C° 0 mm 1 mps 660 mmHg 86%
    21:00 +20°C° 0 mm 1 mps 661 mmHg 87%
    22:00 +20°C° 0 mm 1 mps 661 mmHg 89%
    23:00 +19°C° 0 mm 1 mps 661 mmHg 90%

    25 March, Monday

    Time Temperature Precipitation Wind Pressure Humidity
    00:00 +19°C° 0 mm 1 mps 661 mmHg 92%
    01:00 +19°C° 0 mm 1 mps 660 mmHg 94%
    02:00 +18°C° 0 mm 1 mps 660 mmHg 96%
    03:00 +18°C° 0 mm 1 mps 660 mmHg 97%
    04:00 +18°C° 0 mm 1 mps 660 mmHg 97%
    05:00 +18°C° 0 mm 1 mps 660 mmHg 97%
    06:00 +19°C° 0 mm 1 mps 660 mmHg 94%
    07:00 +19°C° 0 mm 2 mps 661 mmHg 90%
    08:00 +20°C° 0 mm 2 mps 662 mmHg 86%
    09:00 +23°C° 0 mm 2 mps 662 mmHg 79%
    10:00 +25°C° 0 mm 3 mps 662 mmHg 72%
    11:00 +27°C° 0 mm 3 mps 663 mmHg 64%
    12:00 +28°C° 0 mm 3 mps 662 mmHg 60%
    13:00 +29°C° 0 mm 2 mps 661 mmHg 55%
    14:00 +30°C° 0 mm 2 mps 660 mmHg 51%
    15:00 +29°C° 0 mm 2 mps 660 mmHg 54%
    16:00 +29°C° 0 mm 1 mps 660 mmHg 58%
    17:00 +28°C° 0 mm 1 mps 659 mmHg 62%
    18:00 +26°C° 0 mm 1 mps 659 mmHg 64%
    19:00 +24°C° 0 mm 1 mps 659 mmHg 67%
    20:00 +22°C° 0 mm 1 mps 660 mmHg 70%
    21:00 +21°C° 0 mm 1 mps 660 mmHg 71%
    22:00 +21°C° 0 mm 1 mps 660 mmHg 73%
    23:00 +20°C° 0 mm 1 mps 660 mmHg 75%

    26 March, Tuesday

    Time Temperature Precipitation Wind Pressure Humidity
    00:00 +20°C° 0 mm 1 mps 660 mmHg 77%
    01:00 +19°C° 0 mm 1 mps 660 mmHg 80%
    02:00 +19°C° 0 mm 1 mps 659 mmHg 83%
    03:00 +19°C° 0 mm 1 mps 659 mmHg 85%
    04:00 +18°C° 0 mm 1 mps 659 mmHg 88%
    05:00 +18°C° 0 mm 1 mps 659 mmHg 90%
    06:00 +20°C° 0 mm 1 mps 660 mmHg 86%
    07:00 +21°C° 0 mm 1 mps 661 mmHg 81%
    08:00 +23°C° 0 mm 1 mps 662 mmHg 77%
    09:00 +25°C° 0 mm 1 mps 662 mmHg 69%
    10:00 +27°C° 0 mm 1 mps 663 mmHg 61%
    11:00 +29°C° 0 mm 2 mps 663 mmHg 53%
    12:00 +29°C° 0 mm 2 mps 662 mmHg 51%
    13:00 +30°C° 0 mm 2 mps 662 mmHg 48%
    14:00 +31°C° 0 mm 2 mps 661 mmHg 45%
    15:00 +30°C° 0 mm 2 mps 661 mmHg 49%
    16:00 +30°C° 0 mm 1 mps 661 mmHg 54%
    17:00 +29°C° 0 mm 1 mps 661 mmHg 58%
    18:00 +27°C° 0 mm 1 mps 661 mmHg 61%
    19:00 +25°C° 0 mm 1 mps 661 mmHg 64%
    20:00 +23°C° 0 mm 1 mps 661 mmHg 68%
    21:00 +22°C° 0 mm 1 mps 661 mmHg 70%
    22:00 +22°C° 0 mm 1 mps 661 mmHg 72%
    23:00 +21°C° 0 mm 1 mps 661 mmHg 74%

    27 March, Wednesday

    Time Temperature Precipitation Wind Pressure Humidity
    00:00 +21°C° 0 mm 1 mps 661 mmHg 75%
    01:00 +21°C° 0 mm 1 mps 661 mmHg 77%
    02:00 +20°C° 0 mm 2 mps 661 mmHg 78%
    03:00 +20°C° 0 mm 1 mps 661 mmHg 80%
    04:00 +20°C° 0 mm 1 mps 662 mmHg 81%
    05:00 +20°C° 0 mm 1 mps 662 mmHg 82%
    06:00 +20°C° 0 mm 2 mps 662 mmHg 81%
    07:00 +21°C° 0 mm 3 mps 663 mmHg 79%
    08:00 +21°C° 0 mm 3 mps 664 mmHg 77%
    09:00 +23°C° 0 mm 4 mps 664 mmHg 70%
    10:00 +26°C° 0 mm 4 mps 665 mmHg 64%
    11:00 +27°C° 0 mm 4 mps 665 mmHg 58%
    12:00 +28°C° 0 mm 4 mps 664 mmHg 54%
    13:00 +29°C° 0 mm 4 mps 664 mmHg 50%
    14:00 +30°C° 0 mm 3 mps 663 mmHg 47%
    15:00 +29°C° 0 mm 3 mps 663 mmHg 52%
    16:00 +29°C° 0 mm 2 mps 663 mmHg 56%
    17:00 +28°C° 0 mm 2 mps 663 mmHg 61%
    18:00 +26°C° 0 mm 2 mps 663 mmHg 65%
    19:00 +24°C° 0 mm 2 mps 663 mmHg 68%
    20:00 +21°C° 0 mm 2 mps 663 mmHg 71%
    21:00 +21°C° 0 mm 2 mps 664 mmHg 75%
    22:00 +20°C° 0 mm 2 mps 664 mmHg 78%
    23:00 +19°C° 0 mm 2 mps 664 mmHg 81%
    Show more